Regional Weather Roundup
Issued by NWS

Home | Current Version | Previous Version | Text Only | Print | Product List | Glossary Off
Versions: 1 2 3 4 5 6 7 8 9 10 11 12 13 14 15 16 17 18 19 20 21 22 23 24 25 26 27 28 29 30 31 32 33 34 35 36 37 38 39 40 41 42 43 44 45 46 47 48 49 50

284
ASUS45 KCYS 111310
RWRWY

WYOMING REGIONAL WEATHER ROUNDUP
NATIONAL WEATHER SERVICE CHEYENNE WY
600 AM MST THU FEB 11 2016

NOTE:  "FAIR" INDICATES FEW OR NO CLOUDS BELOW 12,000 FEET
WITH NO SIGNIFICANT WEATHER AND/OR OBSTRUCTIONS TO VISIBILITY.

WYZ001-111400-
YELLOWSTONE NATIONAL PARK

CITY           SKY/WX    TMP DP  RH WIND       PRES   REMARKS
LK YELLOWSTONE   N/A     23  17  78 CALM      30.32S
W YELLOWSTONE  NOT AVBL

$$
WYZ002>013-054>058-071-098>099-111400-
NORTHERN WYOMING

CITY           SKY/WX    TMP DP  RH WIND       PRES   REMARKS
JACKSON        FAIR      12  10  92 NE3       30.36R
CODY           FAIR      52  18  25 NW5G17    30.10R
GREYBULL       FAIR      30  25  81 CALM      30.09S
WORLAND        FAIR      28  26  92 SW5       30.10R WCI  23
SHERIDAN       CLEAR     43  23  45 CALM      30.02S
BUFFALO        FAIR      45  21  38 W5        30.05R
GILLETTE       CLOUDY    42  24  49 W9        30.03R
HULETT         CLOUDY    43  27  52 SW9       30.00S
NEWCASTLE      FAIR      32  25  74 CALM      30.04F

$$
WYZ014>020-022>026-101>103-111400-
CENTRAL WYOMING

CITY           SKY/WX    TMP DP  RH WIND       PRES   REMARKS
BIG PINEY      FAIR      12   8  84 NW7       30.32F WCI   1
PINEDALE         N/A     14  10  85 W3        30.31F
DUBOIS         FAIR      36  16  44 NW22G32   30.20S WCI  24
LANDER         FAIR      28  15  58 NW9       30.14R WCI  19
RIVERTON       FAIR      39  19  44 W21       30.13S WCI  29
CASPER         FAIR      37  20  50 SW22      30.12F WCI  26
DOUGLAS        FAIR      33  25  72 CALM        N/A

$$
WYZ021-027>030-104>119-111400-
SOUTHERN WYOMING

CITY           SKY/WX    TMP DP  RH WIND       PRES   REMARKS
EVANSTON       FAIR      26  11  52 S8        30.40R WCI  18
FORT BRIDGER   SUNNY     27  16  63 W15       30.39R WCI  15
ROCK SPRINGS   FAIR      30  14  51 S7        30.34S WCI  23
DIXON          FAIR      12   6  79 CALM      30.40R
RAWLINS        FAIR      32  17  54 SW26G36   30.25R WCI  18
SARATOGA       FAIR      34  19  55 SW16      30.30R WCI  23
LARAMIE        FAIR      34  17  50 W14G23    30.20R WCI  25
CHEYENNE       FAIR      44  15  31 W10       30.12F
TORRINGTON     FAIR      31  23  72 CALM      30.08S
PINE BLUFFS    FAIR      32  23  69 CALM      30.13F

$$




USA.gov is the U.S. government's official web portal to all federal, state and local government web resources and services.